TimeCDT,TemperatureF,Dew PointF,Humidity,Sea Level PressureIn,VisibilityMPH,Wind Direction,Wind SpeedMPH,Gust SpeedMPH,PrecipitationIn,Events,Conditions,WindDirDegrees,DateUTC
12:15 AM,33.8,30.2,87,30.01,10.0,NNW,6.9,-,N/A,,Overcast,340,2011-10-27 05:15:00
12:35 AM,33.8,30.2,87,30.01,10.0,NNW,8.1,-,N/A,,Scattered Clouds,340,2011-10-27 05:35:00
1:15 AM,28.4,26.6,93,30.01,10.0,Calm,Calm,-,N/A,,Scattered Clouds,0,2011-10-27 06:15:00
1:35 AM,28.4,26.6,93,30.01,10.0,Calm,Calm,-,N/A,,Clear,0,2011-10-27 06:35:00
1:55 AM,28.4,26.6,93,30.00,10.0,Calm,Calm,-,N/A,,Clear,0,2011-10-27 06:55:00
2:15 AM,26.6,24.8,93,30.00,10.0,Calm,Calm,-,N/A,,Scattered Clouds,0,2011-10-27 07:15:00
2:35 AM,24.8,23.0,93,30.00,10.0,Calm,Calm,-,N/A,,Scattered Clouds,0,2011-10-27 07:35:00
2:55 AM,24.8,21.2,86,30.00,10.0,Calm,Calm,-,N/A,,Clear,0,2011-10-27 07:55:00
3:15 AM,24.8,23.0,93,30.00,5.0,Calm,Calm,-,N/A,,Clear,0,2011-10-27 08:15:00
3:35 AM,24.8,23.0,93,30.00,0.2,Calm,Calm,-,N/A,Fog,Light Freezing Fog,0,2011-10-27 08:35:00
3:55 AM,24.8,21.2,86,30.00,0.2,Calm,Calm,-,N/A,Fog,Light Freezing Fog,0,2011-10-27 08:55:00
4:15 AM,23.0,21.2,93,30.00,0.2,Calm,Calm,-,N/A,Fog,Light Freezing Fog,0,2011-10-27 09:15:00
4:35 AM,24.8,21.2,86,30.00,0.5,Calm,Calm,-,N/A,Fog,Light Freezing Fog,0,2011-10-27 09:35:00
4:55 AM,24.8,21.2,86,30.00,0.5,Calm,Calm,-,N/A,Fog,Light Freezing Fog,0,2011-10-27 09:55:00
5:34 AM,23.0,21.2,93,30.01,0.2,Calm,Calm,-,N/A,Fog,Light Freezing Fog,0,2011-10-27 10:34:00
5:55 AM,23.0,21.2,93,30.01,0.2,Calm,Calm,-,N/A,Fog,Light Freezing Fog,0,2011-10-27 10:55:00
6:15 AM,23.0,21.2,93,30.01,0.2,Calm,Calm,-,N/A,Fog,Light Freezing Fog,0,2011-10-27 11:15:00
6:35 AM,23.0,21.2,93,30.01,0.5,Calm,Calm,-,N/A,Fog,Light Freezing Fog,0,2011-10-27 11:35:00
6:55 AM,24.8,23.0,93,30.01,0.2,Calm,Calm,-,N/A,Fog,Light Freezing Fog,0,2011-10-27 11:55:00
7:15 AM,24.8,23.0,93,30.02,0.2,Calm,Calm,-,N/A,Fog,Light Freezing Fog,0,2011-10-27 12:15:00
7:35 AM,24.8,23.0,93,30.02,0.5,Calm,Calm,-,N/A,Fog,Light Freezing Fog,0,2011-10-27 12:35:00
7:55 AM,24.8,23.0,93,30.02,0.2,Calm,Calm,-,N/A,Fog,Light Freezing Fog,0,2011-10-27 12:55:00
8:15 AM,24.8,23.0,93,30.01,0.2,Calm,Calm,-,N/A,Fog,Light Freezing Fog,0,2011-10-27 13:15:00
8:35 AM,24.8,24.8,100,30.02,0.2,Calm,Calm,-,N/A,Snow,Light Snow,0,2011-10-27 13:35:00
8:55 AM,24.8,24.8,100,30.02,0.2,Calm,Calm,-,N/A,Snow,Light Snow,0,2011-10-27 13:55:00
9:15 AM,26.6,24.8,93,30.01,0.2,Calm,Calm,-,N/A,Fog,Light Freezing Fog,0,2011-10-27 14:15:00
9:35 AM,26.6,26.6,100,30.02,0.2,Calm,Calm,-,N/A,Fog,Light Freezing Fog,0,2011-10-27 14:35:00
9:55 AM,26.6,26.6,100,30.02,0.2,Calm,Calm,-,N/A,Fog,Light Freezing Fog,0,2011-10-27 14:55:00
10:14 AM,28.4,28.4,100,30.01,0.2,Calm,Calm,-,N/A,Fog,Light Freezing Fog,0,2011-10-27 15:14:00
10:35 AM,30.2,28.4,93,30.02,0.2,Calm,Calm,-,N/A,Fog,Light Freezing Fog,0,2011-10-27 15:35:00
10:55 AM,30.2,30.2,100,30.02,0.2,Calm,Calm,-,N/A,Fog,Light Freezing Fog,0,2011-10-27 15:55:00
11:14 AM,30.2,30.2,100,30.02,0.2,Calm,Calm,-,N/A,Fog,Light Freezing Fog,0,2011-10-27 16:14:00
11:35 AM,32.0,32.0,100,30.02,0.8,Calm,Calm,-,N/A,,Overcast,0,2011-10-27 16:35:00
11:55 AM,33.8,33.8,100,30.02,2.0,Calm,Calm,-,N/A,,Overcast,0,2011-10-27 16:55:00
12:14 PM,35.6,33.8,93,30.02,10.0,Calm,Calm,-,N/A,,Mostly Cloudy,0,2011-10-27 17:14:00
12:35 PM,39.2,35.6,87,30.01,10.0,Calm,Calm,-,N/A,,Scattered Clouds,0,2011-10-27 17:35:00
12:55 PM,42.8,35.6,76,30.01,10.0,Calm,Calm,-,N/A,,Clear,0,2011-10-27 17:55:00
1:14 PM,42.8,35.6,76,30.00,10.0,SSW,5.8,-,N/A,,Clear,210,2011-10-27 18:14:00
1:35 PM,44.6,35.6,71,29.99,10.0,Calm,Calm,-,N/A,,Clear,0,2011-10-27 18:35:00
1:55 PM,44.6,35.6,71,29.99,10.0,Calm,Calm,-,N/A,,Clear,0,2011-10-27 18:55:00
2:15 PM,46.4,33.8,62,29.98,10.0,Calm,Calm,-,N/A,,Clear,0,2011-10-27 19:15:00
2:35 PM,46.4,30.2,53,29.98,10.0,Calm,Calm,-,N/A,,Scattered Clouds,0,2011-10-27 19:35:00
2:54 PM,44.6,30.2,57,29.97,10.0,Calm,Calm,-,N/A,,Scattered Clouds,0,2011-10-27 19:54:00
3:15 PM,44.6,33.8,66,29.97,10.0,Calm,Calm,-,N/A,,Scattered Clouds,0,2011-10-27 20:15:00
3:35 PM,44.6,28.4,53,29.97,10.0,Calm,Calm,-,N/A,,Scattered Clouds,0,2011-10-27 20:35:00
3:55 PM,44.6,30.2,57,29.97,10.0,Calm,Calm,-,N/A,,Scattered Clouds,0,2011-10-27 20:55:00
4:15 PM,44.6,30.2,57,29.97,10.0,Calm,Calm,-,N/A,,Clear,0,2011-10-27 21:15:00
4:35 PM,44.6,30.2,57,29.98,10.0,Calm,Calm,-,N/A,,Scattered Clouds,0,2011-10-27 21:35:00
4:54 PM,44.6,33.8,66,29.97,10.0,Calm,Calm,-,N/A,,Scattered Clouds,0,2011-10-27 21:54:00
5:15 PM,44.6,35.6,71,29.97,10.0,Calm,Calm,-,N/A,,Scattered Clouds,0,2011-10-27 22:15:00
5:35 PM,42.8,28.4,57,29.96,10.0,Calm,Calm,-,N/A,,Clear,0,2011-10-27 22:35:00
5:55 PM,42.8,30.2,61,29.97,10.0,Calm,Calm,-,N/A,,Clear,0,2011-10-27 22:55:00
6:15 PM,39.2,28.4,65,29.97,10.0,Calm,Calm,-,N/A,,Clear,0,2011-10-27 23:15:00
6:35 PM,37.4,28.4,70,29.97,10.0,Calm,Calm,-,N/A,,Clear,0,2011-10-27 23:35:00
6:54 PM,37.4,28.4,70,29.98,10.0,Calm,Calm,-,N/A,,Clear,0,2011-10-27 23:54:00
7:15 PM,37.4,30.2,75,29.98,10.0,SE,4.6,-,N/A,,Clear,140,2011-10-28 00:15:00
7:35 PM,37.4,30.2,75,29.98,10.0,SSE,5.8,-,N/A,,Clear,150,2011-10-28 00:35:00
7:55 PM,35.6,30.2,81,29.98,10.0,SSE,6.9,-,N/A,,Clear,150,2011-10-28 00:55:00
8:15 PM,35.6,30.2,81,29.98,10.0,SSE,4.6,-,N/A,,Clear,150,2011-10-28 01:15:00
8:35 PM,35.6,28.4,75,29.98,10.0,Calm,Calm,-,N/A,,Clear,0,2011-10-28 01:35:00
8:55 PM,35.6,28.4,75,29.97,10.0,SSE,4.6,-,N/A,,Clear,150,2011-10-28 01:55:00
9:15 PM,35.6,28.4,75,29.97,10.0,SE,3.5,-,N/A,,Clear,140,2011-10-28 02:15:00
9:35 PM,35.6,28.4,75,29.96,10.0,SE,6.9,-,N/A,,Scattered Clouds,140,2011-10-28 02:35:00
9:55 PM,35.6,28.4,75,29.96,10.0,SE,4.6,-,N/A,,Mostly Cloudy,140,2011-10-28 02:55:00
10:15 PM,37.4,30.2,75,29.95,10.0,SE,6.9,-,N/A,,Overcast,140,2011-10-28 03:15:00
10:35 PM,37.4,30.2,75,29.95,10.0,SSE,6.9,-,N/A,,Overcast,150,2011-10-28 03:35:00
10:54 PM,37.4,28.4,70,29.95,10.0,SSE,5.8,-,N/A,,Overcast,160,2011-10-28 03:54:00
11:15 PM,37.4,26.6,65,29.95,10.0,Calm,Calm,-,N/A,,Overcast,0,2011-10-28 04:15:00
11:35 PM,37.4,26.6,65,29.94,10.0,Calm,Calm,-,N/A,,Overcast,0,2011-10-28 04:35:00
11:54 PM,37.4,26.6,65,29.94,10.0,Calm,Calm,-,N/A,,Overcast,0,2011-10-28 04:54:00